Showing default

KINEIS-2C, 62929

Orbit data source: Space-Track

KINEIS-2C, 62929 is a French payload satellite in SSO that was launched on Sat, 08 Feb 2025 UTC via an ELECTRON launch vehicle from the Rocket Lab Launch Complex (RLLC). Payload-class satellites include a variety of spacecraft equipped with specific instruments for various scientific and technological missions. These include communications satellites like Starlink; space stations such as the ISS; scientific satellites like the Hubble; Earth observation satellites from companies like Planet Labs, Umbra, and HawkEye 360; GPS; miniature CubeSats for education and research; and military/defense satellites.

Loading next visibility...
Identifier
62929, 2025-028B
Orbit
SSO
Country
Flag of FRFR
Related business
Manufacturer
KINEIS
Mission
Operational Commercial Communications
Bus & Motor
CUBESAT 16U, Unknown motor
Mass
28 kg wet, 28 kg dry
Launch date (UTC)
2025-02-08 (9 months ago)
Launch vehicle
ELECTRON
Launch site
Rocket Lab Launch Complex (RLLC)
Object type
Payload
Rocket body
Debris
Shape & HBR
Box + 2 Pan + 1 Ant, 1.0 m
Radar Cross Section
0.229 m², Medium (>0.1 m² and < 1m²)

Expand to show TLE details & history
Last TLE update: 13 hours ago

TLE from 13 hours ago
0 KINEIS-2C
1 62929U 25028B   25304.73635211  .00002307  00000-0  37237-3 0  9994
2 62929  98.0163 356.5881 0002092  55.1107 305.0297 14.72360729 38991
Epoch: 2025-10-31T17:40Z
TLE epoch observation values (Epoch: 2025-10-31T17:40:20.822Z)
Latitude
0.00001°
Longitude
51.22484°
Altitude
655.705 km
Speed
7.53 km/s
True Right ascension
23h 46m 21s
True Declination
0° 00' 00"
Sunlit
Object was in full shadow at epoch
Visualization orbit readout
Latitude
Unknown
Longitude
Unknown
Altitude
Unknown
Speed
Unknown
Apparent Right ascension
Unknown
Apparent Declination
Unknown
Sunlit
N/A
Visualization observer readout
Local Sidereal Time
01:55:44
Azimuth
Unknown
Elevation
Unknown
Doppler factor
Unknown
Orbital elements
Apogee altitude
652.069 km
Perigee altitude
649.128 km
Semi-major axis
7,028.735 km
Eccentricity
0.00021
Inclination
98.0163°
RAAN
356.5881°
Arg. of periapsis
55.1107°
True anomaly
305.01007°
Mean anomaly
305.0297°
Eccentric anomaly
305.01988°
Mean motion
3.68322 °/min
Orbital period
97.74 mins
BSTAR
0.00037237
Loading maneuver chart data...
Computing Atmospheric mass density...
Loading historical data...
Loading historical data...
Loading historical data...
Loading historical data...
Loading historical data...
Loading historical data...
Loading historical data...

Documentation

Showing up to 5 results
|